�������l�o���
Date,Time,MP-1(��Sv/h),MP-2(��Sv/h),MP-3(��Sv/h),MP-4(��Sv/h),MP-5(��Sv/h),MP-6(��Sv/h),MP-7(��Sv/h),����,����(m/s),���J
2020/08/29,00:00,0.183,0.170,0.279,0.268,0.254,0.144,0.086,��쐼,5.4,��
2020/08/29,00:10,0.186,0.170,0.282,0.267,0.251,0.145,0.087,�쐼,4.7,��
2020/08/29,00:20,0.184,0.168,0.283,0.265,0.250,0.146,0.087,��쐼,5.2,��
2020/08/29,00:30,0.183,0.169,0.280,0.263,0.248,0.146,0.088,��쐼,5.7,��
2020/08/29,00:40,0.182,0.170,0.279,0.265,0.253,0.146,0.086,��쐼,4.5,��
2020/08/29,00:50,0.186,0.168,0.280,0.268,0.254,0.145,0.086,��쐼,5.1,��
2020/08/29,01:00,0.185,0.167,0.282,0.267,0.252,0.146,0.088,�쐼,4.4,��
2020/08/29,01:10,0.183,0.169,0.280,0.265,0.250,0.146,0.087,�쐼,4.3,��
2020/08/29,01:20,0.183,0.169,0.279,0.263,0.249,0.146,0.087,��쐼,4.5,��
2020/08/29,01:30,0.186,0.169,0.278,0.266,0.253,0.146,0.086,��쐼,3.6,��
2020/08/29,01:40,0.185,0.168,0.283,0.268,0.253,0.146,0.087,��쐼,4.0,��
2020/08/29,01:50,0.184,0.170,0.283,0.267,0.251,0.146,0.087,��쐼,4.1,��
2020/08/29,02:00,0.183,0.170,0.281,0.263,0.250,0.147,0.087,�쐼,3.9,��
2020/08/29,02:10,0.185,0.168,0.279,0.267,0.250,0.147,0.087,�쐼,3.7,��
2020/08/29,02:20,0.184,0.167,0.280,0.268,0.254,0.146,0.087,��쐼,4.2,��
2020/08/29,02:30,0.183,0.171,0.283,0.266,0.254,0.146,0.088,��쐼,4.4,��
2020/08/29,02:40,0.184,0.169,0.281,0.264,0.252,0.146,0.087,��쐼,5.3,��
2020/08/29,02:50,0.186,0.169,0.280,0.268,0.250,0.147,0.087,�쐼,5.0,��
2020/08/29,03:00,0.185,0.169,0.278,0.267,0.251,0.145,0.087,�쐼,5.6,��
2020/08/29,03:10,0.183,0.170,0.282,0.266,0.254,0.145,0.087,�쐼,6.7,��
2020/08/29,03:20,0.183,0.168,0.281,0.263,0.253,0.146,0.087,�쐼,6.8,��
2020/08/29,03:30,0.185,0.169,0.281,0.267,0.249,0.146,0.087,�쐼,6.4,��
2020/08/29,03:40,0.185,0.170,0.279,0.268,0.249,0.146,0.088,�쐼,4.9,��
2020/08/29,03:50,0.183,0.169,0.282,0.266,0.253,0.145,0.088,�쐼,3.0,��
2020/08/29,04:00,0.183,0.168,0.282,0.264,0.253,0.146,0.087,�쐼,4.4,��
2020/08/29,04:10,0.184,0.170,0.279,0.268,0.250,0.146,0.088,�쐼,2.8,��
2020/08/29,04:20,0.184,0.169,0.280,0.267,0.250,0.147,0.088,�쐼,1.6,��
2020/08/29,04:30,0.183,0.168,0.283,0.265,0.253,0.147,0.087,��쐼,1.3,��
2020/08/29,04:40,0.185,0.170,0.282,0.264,0.254,0.145,0.087,-,CALM,��
2020/08/29,04:50,0.185,0.170,0.279,0.268,0.252,0.145,0.087,��,0.7,��
2020/08/29,05:00,0.184,0.168,0.280,0.267,0.250,0.147,0.088,��쐼,1.2,��
2020/08/29,05:10,0.185,0.169,0.282,0.263,0.253,0.146,0.088,-,CALM,��
2020/08/29,05:20,0.185,0.170,0.281,0.267,0.253,0.145,0.087,-,CALM,��
2020/08/29,05:30,0.185,0.169,0.280,0.267,0.252,0.146,0.087,�k�k��,0.7,��
2020/08/29,05:40,0.184,0.168,0.283,0.264,0.249,0.146,0.087,�k�k��,0.8,��
2020/08/29,05:50,0.185,0.170,0.281,0.263,0.253,0.145,0.086,�k��,0.6,��
2020/08/29,06:00,0.185,0.169,0.279,0.267,0.253,0.146,0.087,�k��,0.6,��
2020/08/29,06:10,0.184,0.168,0.280,0.266,0.251,0.147,0.087,�k��,1.2,��
2020/08/29,06:20,0.183,0.168,0.284,0.264,0.250,0.146,0.087,-,CALM,��
2020/08/29,06:30,0.184,0.170,0.281,0.263,0.250,0.146,0.087,-,CALM,��
2020/08/29,06:40,0.185,0.170,0.280,0.267,0.251,0.146,0.087,-,CALM,��
2020/08/29,06:50,0.184,0.168,0.278,0.267,0.253,0.147,0.087,-,CALM,��
2020/08/29,07:00,0.183,0.168,0.283,0.265,0.252,0.146,0.088,��쓌,0.6,��
2020/08/29,07:10,0.185,0.170,0.282,0.264,0.252,0.146,0.087,-,CALM,��
2020/08/29,07:20,0.186,0.171,0.282,0.263,0.250,0.146,0.088,-,CALM,��
2020/08/29,07:30,0.184,0.169,0.281,0.263,0.251,0.147,0.088,-,CALM,��
2020/08/29,07:40,0.184,0.169,0.279,0.264,0.249,0.148,0.088,-,CALM,��
2020/08/29,07:50,0.183,0.168,0.281,0.263,0.251,0.146,0.088,���쓌,1.1,��
2020/08/29,08:00,0.182,0.168,0.280,0.265,0.251,0.145,0.088,�쓌,1.8,��
2020/08/29,08:10,0.183,0.168,0.280,0.266,0.251,0.146,0.088,��쓌,2.0,��
2020/08/29,08:20,0.183,0.169,0.281,0.266,0.251,0.147,0.087,�쓌,2.3,��
2020/08/29,08:30,0.182,0.168,0.281,0.265,0.251,0.146,0.087,�쓌,2.4,��
2020/08/29,08:40,0.184,0.169,0.283,0.266,0.251,0.146,0.088,�쓌,1.3,��
2020/08/29,08:50,0.185,0.170,0.284,0.267,0.253,0.147,0.088,�쓌,2.0,��
2020/08/29,09:00,0.185,0.169,0.282,0.269,0.253,0.148,0.088,�쓌,2.0,��
2020/08/29,09:10,0.186,0.169,0.284,0.269,0.254,0.148,0.089,��쓌,2.4,��
2020/08/29,09:20,0.185,0.169,0.284,0.269,0.254,0.147,0.088,��쓌,3.5,��
2020/08/29,09:30,0.185,0.170,0.284,0.269,0.253,0.146,0.088,��쓌,3.8,��
2020/08/29,09:40,0.185,0.171,0.283,0.269,0.254,0.147,0.088,��,3.6,��
2020/08/29,09:50,0.185,0.170,0.283,0.269,0.253,0.148,0.088,��,3.7,��
2020/08/29,10:00,0.185,0.171,0.284,0.268,0.254,0.148,0.088,��쓌,4.5,��
2020/08/29,10:10,0.186,0.172,0.283,0.269,0.252,0.147,0.089,��쓌,4.6,��
2020/08/29,10:20,0.186,0.171,0.282,0.269,0.252,0.147,0.088,��쓌,5.2,��
2020/08/29,10:30,0.185,0.172,0.283,0.269,0.252,0.148,0.087,��쓌,4.9,��
2020/08/29,10:40,0.186,0.171,0.283,0.269,0.250,0.147,0.087,��쓌,5.5,��
2020/08/29,10:50,0.184,0.170,0.283,0.268,0.251,0.148,0.087,��쓌,5.4,��
2020/08/29,11:00,0.184,0.171,0.283,0.270,0.251,0.146,0.087,��쓌,5.7,��
2020/08/29,11:10,0.184,0.170,0.282,0.269,0.251,0.144,0.087,��쓌,5.2,��
2020/08/29,11:20,0.185,0.170,0.283,0.269,0.251,0.146,0.087,��쓌,5.2,��
2020/08/29,11:30,0.186,0.169,0.281,0.269,0.252,0.145,0.087,��쓌,4.9,��
2020/08/29,11:40,0.185,0.171,0.282,0.268,0.251,0.145,0.087,��쓌,5.4,��
2020/08/29,11:50,0.185,0.170,0.283,0.269,0.251,0.145,0.087,��쓌,5.5,��
2020/08/29,12:00,0.185,0.170,0.282,0.268,0.251,0.146,0.086,��쓌,4.9,��
2020/08/29,12:10,0.185,0.169,0.282,0.269,0.251,0.144,0.087,��쓌,5.7,��
2020/08/29,12:20,0.186,0.169,0.280,0.268,0.251,0.145,0.087,��쓌,5.3,��
2020/08/29,12:30,0.186,0.170,0.282,0.267,0.251,0.145,0.087,��쓌,5.5,��
2020/08/29,12:40,0.185,0.169,0.282,0.269,0.252,0.145,0.087,��,4.9,��
2020/08/29,12:50,0.186,0.170,0.281,0.267,0.252,0.144,0.087,��,4.9,��
2020/08/29,13:00,0.185,0.169,0.281,0.268,0.252,0.145,0.087,��쓌,4.3,��
2020/08/29,13:10,0.185,0.170,0.282,0.267,0.251,0.145,0.087,��쓌,3.6,��
2020/08/29,13:20,0.185,0.169,0.281,0.267,0.251,0.146,0.087,��쓌,4.0,��
2020/08/29,13:30,0.184,0.170,0.282,0.268,0.250,0.145,0.087,��,4.4,��
2020/08/29,13:40,0.185,0.170,0.282,0.266,0.249,0.145,0.087,��,4.3,��
2020/08/29,13:50,0.185,0.170,0.281,0.266,0.249,0.145,0.087,��,3.7,��
2020/08/29,14:00,0.184,0.170,0.281,0.268,0.249,0.144,0.087,��,3.2,��
2020/08/29,14:10,0.185,0.169,0.282,0.268,0.250,0.144,0.087,��,3.3,��
2020/08/29,14:20,0.184,0.169,0.281,0.267,0.250,0.145,0.086,��,2.1,��
2020/08/29,14:30,0.184,0.169,0.281,0.268,0.250,0.145,0.087,��,1.6,��
2020/08/29,14:40,0.182,0.168,0.280,0.267,0.251,0.144,0.087,��,1.1,��
2020/08/29,14:50,0.184,0.168,0.281,0.266,0.250,0.144,0.087,-,CALM,��
2020/08/29,15:00,0.184,0.169,0.278,0.265,0.248,0.144,0.086,��,0.8,��
2020/08/29,15:10,0.184,0.168,0.278,0.266,0.248,0.145,0.087,��,2.1,��
2020/08/29,15:20,0.184,0.169,0.279,0.264,0.250,0.144,0.087,�쐼,1.7,��
2020/08/29,15:30,0.183,0.168,0.279,0.265,0.250,0.144,0.087,��,1.4,��
2020/08/29,15:40,0.183,0.168,0.280,0.265,0.250,0.144,0.087,��쐼,1.5,��
2020/08/29,15:50,0.183,0.168,0.279,0.264,0.249,0.146,0.087,��쐼,1.5,��
2020/08/29,16:00,0.182,0.168,0.279,0.264,0.250,0.146,0.086,��쐼,0.8,��
2020/08/29,16:10,0.182,0.167,0.278,0.264,0.249,0.145,0.087,��,0.7,��
2020/08/29,16:20,0.184,0.169,0.279,0.265,0.249,0.146,0.086,��,1.2,��
2020/08/29,16:30,0.184,0.168,0.280,0.264,0.249,0.146,0.086,��,2.2,��
2020/08/29,16:40,0.184,0.169,0.278,0.265,0.250,0.146,0.087,��쐼,1.6,��
2020/08/29,16:50,0.184,0.170,0.278,0.265,0.251,0.146,0.086,�쐼,0.9,��
2020/08/29,17:00,0.184,0.169,0.279,0.266,0.251,0.146,0.087,��쐼,1.1,��
2020/08/29,17:10,0.183,0.169,0.280,0.265,0.252,0.146,0.086,���쐼,1.3,��
2020/08/29,17:20,0.184,0.169,0.280,0.265,0.251,0.146,0.087,���k��,0.7,��
2020/08/29,17:30,0.184,0.168,0.280,0.265,0.252,0.144,0.086,-,CALM,��
2020/08/29,17:40,0.182,0.168,0.281,0.264,0.250,0.146,0.086,�k�k��,0.8,��
2020/08/29,17:50,0.182,0.168,0.279,0.265,0.250,0.145,0.086,-,CALM,��
2020/08/29,18:00,0.183,0.168,0.280,0.265,0.250,0.146,0.087,�k��,0.8,��
2020/08/29,18:10,0.183,0.168,0.280,0.263,0.249,0.146,0.087,�k�k��,1.8,��
2020/08/29,18:20,0.184,0.168,0.279,0.266,0.250,0.145,0.088,�k�k��,1.9,��
2020/08/29,18:30,0.187,0.168,0.280,0.267,0.251,0.147,0.087,�k,1.4,��
2020/08/29,18:40,0.186,0.169,0.280,0.269,0.249,0.147,0.087,�k,1.6,��
2020/08/29,18:50,0.185,0.171,0.279,0.267,0.249,0.147,0.087,�k�k��,1.6,��
2020/08/29,19:00,0.183,0.170,0.285,0.267,0.251,0.145,0.086,-,CALM,��
2020/08/29,19:10,0.182,0.168,0.285,0.265,0.250,0.145,0.086,�k��,0.6,��
2020/08/29,19:20,0.183,0.168,0.282,0.264,0.251,0.146,0.087,�k�k��,1.3,��
2020/08/29,19:30,0.184,0.169,0.281,0.264,0.255,0.146,0.088,�k�k��,1.4,��
2020/08/29,19:40,0.186,0.168,0.281,0.265,0.255,0.148,0.088,�k�k��,0.7,��
2020/08/29,19:50,0.186,0.170,0.279,0.269,0.253,0.147,0.088,�k�k��,1.6,��
2020/08/29,20:00,0.184,0.171,0.280,0.267,0.252,0.147,0.087,�k�k��,1.1,��
2020/08/29,20:10,0.184,0.170,0.278,0.267,0.252,0.147,0.086,-,CALM,��
2020/08/29,20:20,0.183,0.169,0.283,0.265,0.249,0.146,0.087,�k�k��,1.4,��
2020/08/29,20:30,0.184,0.169,0.284,0.264,0.249,0.147,0.087,�k,2.0,��
2020/08/29,20:40,0.186,0.169,0.282,0.265,0.252,0.147,0.087,�k��,1.0,��
2020/08/29,20:50,0.184,0.170,0.281,0.269,0.253,0.146,0.087,���k��,1.3,��
2020/08/29,21:00,0.184,0.171,0.280,0.269,0.257,0.147,0.087,��,1.3,��
2020/08/29,21:10,0.183,0.170,0.279,0.267,0.253,0.146,0.088,-,CALM,��
2020/08/29,21:20,0.184,0.169,0.281,0.266,0.252,0.147,0.088,�k��,0.7,��
2020/08/29,21:30,0.186,0.168,0.285,0.264,0.252,0.148,0.088,�k��,0.9,��
2020/08/29,21:40,0.186,0.168,0.285,0.264,0.250,0.147,0.087,�k��,0.7,��
2020/08/29,21:50,0.185,0.170,0.282,0.269,0.249,0.146,0.087,-,CALM,��
2020/08/29,22:00,0.183,0.169,0.281,0.271,0.253,0.146,0.088,-,CALM,��
2020/08/29,22:10,0.183,0.169,0.281,0.268,0.256,0.147,0.088,-,CALM,��
2020/08/29,22:20,0.185,0.169,0.282,0.266,0.253,0.148,0.088,-,CALM,��
2020/08/29,22:30,0.187,0.169,0.285,0.264,0.253,0.148,0.087,�k,1.2,��
2020/08/29,22:40,0.185,0.171,0.284,0.267,0.251,0.146,0.087,�k,1.4,��
2020/08/29,22:50,0.184,0.171,0.282,0.269,0.249,0.146,0.088,�k,1.5,��
2020/08/29,23:00,0.185,0.170,0.280,0.267,0.251,0.147,0.089,�k�k��,1.6,��
2020/08/29,23:10,0.183,0.169,0.278,0.266,0.255,0.148,0.088,�k��,1.3,��
2020/08/29,23:20,0.187,0.169,0.282,0.265,0.253,0.148,0.088,�k��,0.6,��
2020/08/29,23:30,0.187,0.171,0.284,0.264,0.251,0.146,0.087,�k�k��,1.1,��
2020/08/29,23:40,0.186,0.171,0.282,0.269,0.251,0.147,0.087,�k��,1.2,��
2020/08/29,23:50,0.184,0.171,0.281,0.267,0.250,0.147,0.088,�k�k��,1.8,��
